This is the latest recevied weather packets stored in our database for station/object NR0A-4. If no packets are shown the sender has not sent any weather packets the latest 10 day(s).
| Time | Temp. | Humidity | Pressure | Rain* | Wind** | Luminosity | Snow |
|---|---|---|---|---|---|---|---|
| 1777939804 | 13.89° C | 42% | 1007.5 hPa | 0 mm | - | 30 W/m² | - |
| 1777939504 | 13.89° C | 42% | 1007.6 hPa | 0 mm | - | 30 W/m² | - |
| 1777939204 | 14.44° C | 43% | 1007.7 hPa | 0 mm | - | 23 W/m² | - |
| 1777938904 | 14.44° C | 42% | 1007.5 hPa | 0 mm | - | 33 W/m² | - |
| 1777938604 | 14.44° C | 43% | 1007.7 hPa | 0 mm | - | 51 W/m² | - |
| 1777938304 | 15° C | 43% | 1007.8 hPa | 0 mm | - | 63 W/m² | - |
| 1777938004 | 15° C | 44% | 1007.7 hPa | 0 mm | - | 104 W/m² | - |
| 1777937705 | 14.44° C | 44% | 1007.6 hPa | 0 mm | - | 111 W/m² | - |
| 1777937405 | 15° C | 44% | 1007.6 hPa | 0 mm | - | 53 W/m² | - |
| 1777937105 | 15° C | 44% | 1007.7 hPa | 0 mm | - | 54 W/m² | - |
| 1777936804 | 15° C | 43% | 1007.5 hPa | 0 mm | - | 70 W/m² | - |
| 1777936504 | 15° C | 44% | 1007.2 hPa | 0 mm | - | 95 W/m² | - |
| 1777936205 | 15.56° C | 45% | 1007.3 hPa | 0 mm | - | 81 W/m² | - |
| 1777935904 | 15.56° C | 43% | 1007.1 hPa | 0 mm | - | 120 W/m² | - |
| 1777935604 | 16.11° C | 42% | 1006.7 hPa | 0 mm | - | 134 W/m² | - |
| 1777935304 | 16.67° C | 40% | 1006.7 hPa | 0 mm | - | 121 W/m² | - |
| 1777935005 | 17.22° C | 39% | 1006.4 hPa | 0 mm | - | 278 W/m² | - |
| 1777934704 | 17.78° C | 39% | 1006.3 hPa | 0 mm | - | 272 W/m² | - |
| 1777934405 | 17.78° C | 36% | 1006.1 hPa | 0 mm | - | 279 W/m² | - |
| 1777934105 | 17.78° C | 36% | 1006.2 hPa | 0 mm | - | 186 W/m² | - |
| 1777933804 | 17.78° C | 35% | 1006.1 hPa | 0 mm | - | 251 W/m² | - |
| 1777933505 | 18.33° C | 34% | 1006 hPa | 0 mm | - | 243 W/m² | - |
| 1777933204 | 18.89° C | 33% | 1005.8 hPa | 0 mm | - | 234 W/m² | - |
| 1777932904 | 19.44° C | 32% | 1005.7 hPa | 0 mm | - | 385 W/m² | - |
| 1777932605 | 20° C | 32% | 1005.5 hPa | 0 mm | - | 559 W/m² | - |
* Rain latest hour (hover to see other rain measurements)
** Current wind speed in m/s (hover to see current wind gust speed)